STARLINK-2060 (47669 NORAD) Tracking and Keplerian Element Data
This shows tracking and keplerian element data for the satellite.
Feedback or suggestion? Click here.
Element | Value |
Catalog | 47669 |
Name | STARLINK-2060 |
Epoch Orbit | 282 |
Epoch Day | 60.16668981 |
Epoch Year | 2021 |
RAAN | 36.8137 |
Inclination | 53.0498 |
Eccentricity | 0.0001119 |
Argument of Perigee | 292.1295 |
Mean Anonmoly | 196.6839 |
Mean Motion | 15.8689882 |
Decay Rate | 0.00053942 |
L1 | 1 47669U 21012BB 21060.16668981 .00053942 00000-0 20683-3 0 9997 |
L2 | 2 47669 53.0498 36.8137 0001119 292.1295 196.6839 15.86898820 2822 |
Live tracking and technical data element details for STARLINK-2060 (NORAD 47669). STARLINK-2060 can be tracked NOW for your location showing map with azimuth and elevation plus other details from your city location.
Track the satellite on the map from your city or location and see movement details for azimuth, elevation, latitude, longitude, range, height, and movement on the map or in text.
IsCatalogInMostPopularTable: catalog: 47669, numindb: 4
Update: records affected: 1
GetName: 47669 STARLINK-2060
Hit Count: updated at: Mon, 01 Mar 2021 15:23:47 GMT